72P/Denning-Fujikawa (2005)

Japanese version
Home page
Updated on January 24, 2015

---------------------------------------------------------------------

* Profile

* Orbital Elements

Epoch 2005 July 9.0 TT = JDT 2453560.5
T 2005 June 20.16998 TT                                 MPC
q   0.7966597            (2000.0)            P               Q
n   0.10859687     Peri.  337.59006     +0.96761903     -0.23430816
a   4.3510211      Node    36.36860     +0.24887649     +0.82355657
e   0.8169028      Incl.    9.10919     +0.04211778     +0.51657939
P   9.08
From 26 observations 1881 Oct. 19-2014 June 18, mean residual 1".6.
     Nongravitational parameters A1 = -0.06, A2 = +0.0240.

* Finding Charts

* Magnitudes Graph

        m1 = 15.5 + 5 log d + 25.0 log r

---------------------------------------------------------------------

The orbital elements are published on M.P.E.C. 2014-M11.
The charts are made with StellaNavigator Ver.2.0 for Windows (AstroArts / ASCII).
The magnitudes graphs are made with Comet for Windows.

---------------------------------------------------------------------

Copyright(C) Seiichi Yoshida (comet@aerith.net). All rights reserved.